DECAYED

STARLINK-1590, 46138 (Decayed)

Orbit data source: Space-Track

STARLINK-1590, 46138 was a payload satellite owned by SpaceX/Seattle (US) in LEO that was launched on Tue, 18 Aug 2020 UTC via an FALCON 9 launch vehicle from the Air Force Eastern Test Range (AFETR). Payload-class satellites include a variety of spacecraft equipped with specific instruments for various scientific and technological missions. These include communications satellites like Starlink; space stations such as the ISS; scientific satellites like the Hubble; Earth observation satellites from companies like Planet Labs, Umbra, and HawkEye 360; GPS; miniature CubeSats for education and research; and military/defense satellites.

Not visible in the next 10 days
Identifier
46138, 2020-057X
Orbit
Decayed
Country
Flag of USUS
Related business
Manufacturer
SpaceX/Seattle
Mission
Decayed Commercial Communications
Bus & Motor
STARLINK, Unknown motor
Mass
260 kg wet, ~248 kg dry
Launch date (UTC)
2020-08-18 (5 years ago)
Launch vehicle
FALCON 9
Launch site
Air Force Eastern Test Range (AFETR)
Object type
Payload
Rocket body
Debris
Shape & HBR
Box + 1 Pan, 10.1 m
Radar Cross Section
13.562 m², Large (>1 m²)

Expand to show TLE details & history
Last TLE update: 6 months ago

TLE from 6 months ago
0 STARLINK-1590
1 46138U 20057X   25094.04544384  .14242968  12402-4  80590-3 0  9992
2 46138  53.0236 322.2343 0006738 263.0512 253.2494 16.41930499256643
Epoch: 2025-04-04T01:05Z
TLE epoch observation values (Epoch: 2025-04-04T01:05:26.347Z)
Latitude
18.82423°
Longitude
-81.51975°
Altitude
162.337 km
Speed
7.811 km/s
True Right ascension
08h 29m 47s
True Declination
18° 42' 36"
Sunlit
Object was in full shadow at epoch
Visualization orbit readout
Latitude
Unknown
Longitude
Unknown
Altitude
Unknown
Speed
Unknown
Apparent Right ascension
Unknown
Apparent Declination
Unknown
Sunlit
N/A
Visualization observer readout
Local Sidereal Time
11:29:41
Azimuth
Unknown
Elevation
Unknown
Doppler factor
Unknown
Orbital elements
Apogee altitude
165.37 km
Perigee altitude
156.558 km
Semi-major axis
6,539.101 km
Eccentricity
0.00067
Inclination
53.0236°
RAAN
322.2343°
Arg. of periapsis
263.0512°
True anomaly
253.17548°
Mean anomaly
253.2494°
Eccentric anomaly
253.21244°
Mean motion
4.10456 °/min
Orbital period
87.71 mins
BSTAR
0.0008059
Loading maneuver chart data...
Computing Atmospheric mass density...
Loading historical data...
Loading historical data...
Loading historical data...
Loading historical data...
Loading historical data...
Loading historical data...
Loading historical data...

Documentation

Showing up to 5 results
|